User: anonymous   Login
Location: Unspecified
(0.0000°N, 0.0000°E)
Time: 05:32:33
(UTC+00:00)
Language:

N. Korean satellite - Orbit

View from above orbital plane
View from above orbital plane
View from above satellite
View from above satellite

Ground track
Ground track

The orbit data is extracted from the following two-line orbital elements,

1 39026U 12072A   19049.72829002  .00001206  00000-0  46604-4 0  9998
2 39026  97.2109  56.7950 0038876 165.1505 195.0886 15.27463051343288
Epoch (UTC): 18 February 2019 17:28:44
Eccentricity: 0.0038876
inclination: 97.2109°
perigee height: 457 km
apogee height: 510 km
right ascension of ascending node: 56.7950°
argument of perigee: 165.1505°
revolutions per day: 15.27463051
mean anomaly at epoch: 195.0886°
orbit number at epoch: 34328

The dashed part of the orbit path shows where the satellite is in the earth's shadow,  

DLR